When you browse on this site, cookies collect data to enhance your experience and personalize the content and advertising you see.
Visit our Privacy Policy to learn more. By continuing to use the site, you agree to this use of cookies and data.
  • In Österreich
  • Länderverzeichnis
  • Für 7 Tage
  • Wassertemperatur
  • Satellitenkarten
  • Wetterkarte
  • News
  • Widgets
  • user-avatar
    Anmelden

    Stündliche Wetter Oran

    Heute, 21 November, Mittwoch

    Zeit Temperatur Niederschläge Wind Luftdruck Luftfeuchtigkeit
    00:00 +15°C° 0 mm 7 m/S 750 mmHg 71%
    01:00 +15°C° 0 mm 7 m/S 750 mmHg 69%
    02:00 +15°C° 0 mm 6 m/S 750 mmHg 68%
    03:00 +15°C° 0 mm 6 m/S 750 mmHg 66%
    04:00 +15°C° 0 mm 5 m/S 750 mmHg 65%
    05:00 +14°C° 0 mm 5 m/S 750 mmHg 65%
    06:00 +14°C° 0 mm 4 m/S 750 mmHg 64%
    07:00 +17°C° 0 mm 4 m/S 751 mmHg 58%
    08:00 +18°C° 0 mm 3 m/S 751 mmHg 53%
    09:00 +19°C° 0 mm 3 m/S 751 mmHg 47%
    10:00 +21°C° 0 mm 3 m/S 751 mmHg 41%
    11:00 +22°C° 0 mm 3 m/S 751 mmHg 35%
    12:00 +25°C° 0 mm 3 m/S 751 mmHg 29%
    13:00 +25°C° 0 mm 3 m/S 750 mmHg 28%
    14:00 +25°C° 0 mm 3 m/S 750 mmHg 27%
    15:00 +26°C° 0 mm 3 m/S 750 mmHg 25%
    16:00 +24°C° 0 mm 3 m/S 750 mmHg 32%
    17:00 +21°C° 0 mm 2 m/S 751 mmHg 39%
    18:00 +19°C° 0 mm 2 m/S 751 mmHg 46%
    19:00 +19°C° 0 mm 2 m/S 751 mmHg 47%
    20:00 +18°C° 0 mm 2 m/S 752 mmHg 49%
    21:00 +18°C° 0 mm 2 m/S 752 mmHg 51%
    22:00 +18°C° 0 mm 2 m/S 752 mmHg 55%
    23:00 +17°C° 0 mm 2 m/S 752 mmHg 59%

    Morgen, 22 November, Donnerstag

    Zeit Temperatur Niederschläge Wind Luftdruck Luftfeuchtigkeit
    00:00 +17°C° 0 mm 2 m/S 752 mmHg 63%
    01:00 +17°C° 0 mm 2 m/S 752 mmHg 64%
    02:00 +16°C° 0 mm 1 m/S 752 mmHg 66%
    03:00 +16°C° 0 mm 1 m/S 752 mmHg 67%
    04:00 +16°C° 0 mm 1 m/S 752 mmHg 66%
    05:00 +16°C° 0 mm 1 m/S 752 mmHg 66%
    06:00 +16°C° 0 mm 1 m/S 752 mmHg 65%
    07:00 +18°C° 0 mm 1 m/S 752 mmHg 60%
    08:00 +19°C° 0 mm 1 m/S 752 mmHg 55%
    09:00 +20°C° 0 mm 1 m/S 752 mmHg 51%
    10:00 +20°C° 0 mm 2 m/S 752 mmHg 45%
    11:00 +23°C° 0 mm 2 m/S 752 mmHg 39%
    12:00 +24°C° 0 mm 3 m/S 751 mmHg 33%
    13:00 +24°C° 0 mm 3 m/S 751 mmHg 34%
    14:00 +25°C° 0 mm 4 m/S 750 mmHg 36%
    15:00 +25°C° 0 mm 5 m/S 750 mmHg 37%
    16:00 +22°C° 0 mm 5 m/S 750 mmHg 43%
    17:00 +21°C° 0 mm 5 m/S 750 mmHg 49%
    18:00 +19°C° 0 mm 4 m/S 750 mmHg 55%
    19:00 +19°C° 0 mm 4 m/S 750 mmHg 53%
    20:00 +19°C° 0 mm 3 m/S 751 mmHg 52%
    21:00 +19°C° 0 mm 3 m/S 751 mmHg 51%
    22:00 +19°C° 0 mm 3 m/S 751 mmHg 51%
    23:00 +18°C° 0 mm 3 m/S 751 mmHg 51%

    übermorgen, 23 November, Freitag

    Zeit Temperatur Niederschläge Wind Luftdruck Luftfeuchtigkeit
    00:00 +18°C° 0 mm 3 m/S 750 mmHg 51%
    01:00 +18°C° 0 mm 3 m/S 750 mmHg 55%
    02:00 +17°C° 0 mm 3 m/S 750 mmHg 60%
    03:00 +17°C° 0 mm 2 m/S 750 mmHg 64%
    04:00 +16°C° 0 mm 2 m/S 750 mmHg 66%
    05:00 +16°C° 0 mm 2 m/S 751 mmHg 68%
    06:00 +16°C° 0 mm 2 m/S 751 mmHg 70%
    07:00 +17°C° 0 mm 3 m/S 751 mmHg 67%
    08:00 +18°C° 0 mm 3 m/S 752 mmHg 65%
    09:00 +18°C° 0 mm 3 m/S 753 mmHg 62%
    10:00 +19°C° 0.1 mm 3 m/S 753 mmHg 60%
    11:00 +20°C° 0.1 mm 3 m/S 753 mmHg 58%
    12:00 +20°C° 0.1 mm 3 m/S 753 mmHg 56%
    13:00 +20°C° 0.1 mm 4 m/S 753 mmHg 60%
    14:00 +20°C° 0.1 mm 4 m/S 752 mmHg 63%
    15:00 +19°C° 0.1 mm 4 m/S 752 mmHg 66%
    16:00 +19°C° 0 mm 4 m/S 753 mmHg 70%
    17:00 +18°C° 0 mm 3 m/S 753 mmHg 74%
    18:00 +18°C° 0 mm 3 m/S 753 mmHg 78%
    19:00 +17°C° 0 mm 2 m/S 754 mmHg 79%
    20:00 +17°C° 0 mm 2 m/S 754 mmHg 80%
    21:00 +17°C° 0 mm 2 m/S 754 mmHg 80%
    22:00 +17°C° 0 mm 2 m/S 754 mmHg 82%
    23:00 +17°C° 0 mm 2 m/S 754 mmHg 83%

    24 November, Samstag

    Zeit Temperatur Niederschläge Wind Luftdruck Luftfeuchtigkeit
    00:00 +17°C° 0 mm 2 m/S 754 mmHg 85%
    01:00 +16°C° 0.1 mm 2 m/S 754 mmHg 86%
    02:00 +16°C° 0.1 mm 2 m/S 754 mmHg 87%
    03:00 +16°C° 0.1 mm 2 m/S 753 mmHg 88%
    04:00 +16°C° 0 mm 1 m/S 753 mmHg 88%
    05:00 +16°C° 0 mm 1 m/S 753 mmHg 89%
    06:00 +15°C° 0 mm 1 m/S 753 mmHg 90%
    07:00 +16°C° 0 mm 1 m/S 753 mmHg 86%
    08:00 +18°C° 0 mm 1 m/S 753 mmHg 81%
    09:00 +18°C° 0 mm 1 m/S 754 mmHg 77%
    10:00 +18°C° 0 mm 2 m/S 753 mmHg 74%
    11:00 +18°C° 0 mm 2 m/S 753 mmHg 71%
    12:00 +19°C° 0 mm 2 m/S 753 mmHg 67%
    13:00 +19°C° 0.1 mm 3 m/S 753 mmHg 67%
    14:00 +19°C° 0.1 mm 3 m/S 752 mmHg 67%
    15:00 +19°C° 0.1 mm 3 m/S 752 mmHg 67%
    16:00 +18°C° 0.1 mm 3 m/S 752 mmHg 70%
    17:00 +18°C° 0.1 mm 3 m/S 752 mmHg 74%
    18:00 +17°C° 0.1 mm 3 m/S 752 mmHg 77%
    19:00 +17°C° 0 mm 3 m/S 752 mmHg 79%
    20:00 +16°C° 0 mm 3 m/S 753 mmHg 80%
    21:00 +16°C° 0 mm 3 m/S 753 mmHg 81%
    22:00 +16°C° 0 mm 3 m/S 753 mmHg 82%
    23:00 +15°C° 0 mm 4 m/S 753 mmHg 82%

    25 November, Sonntag

    Zeit Temperatur Niederschläge Wind Luftdruck Luftfeuchtigkeit
    00:00 +15°C° 0 mm 4 m/S 753 mmHg 82%
    01:00 +14°C° 0 mm 4 m/S 753 mmHg 83%
    02:00 +14°C° 0 mm 4 m/S 752 mmHg 84%
    03:00 +14°C° 0 mm 4 m/S 752 mmHg 85%
    04:00 +14°C° 0 mm 4 m/S 752 mmHg 84%
    05:00 +14°C° 0 mm 4 m/S 752 mmHg 83%
    06:00 +14°C° 0 mm 4 m/S 752 mmHg 83%
    07:00 +15°C° 0 mm 4 m/S 752 mmHg 73%
    08:00 +16°C° 0 mm 5 m/S 753 mmHg 63%
    09:00 +17°C° 0 mm 5 m/S 753 mmHg 54%
    10:00 +19°C° 0 mm 6 m/S 753 mmHg 49%
    11:00 +20°C° 0 mm 6 m/S 752 mmHg 45%
    12:00 +22°C° 0 mm 7 m/S 752 mmHg 40%
    13:00 +21°C° 0 mm 7 m/S 752 mmHg 42%
    14:00 +21°C° 0 mm 8 m/S 752 mmHg 44%
    15:00 +21°C° 0 mm 8 m/S 751 mmHg 46%
    16:00 +20°C° 0 mm 8 m/S 752 mmHg 53%
    17:00 +18°C° 0 mm 7 m/S 752 mmHg 60%
    18:00 +17°C° 0 mm 7 m/S 752 mmHg 67%
    19:00 +16°C° 0 mm 7 m/S 752 mmHg 70%
    20:00 +16°C° 0 mm 7 m/S 753 mmHg 73%
    21:00 +16°C° 0 mm 7 m/S 753 mmHg 76%
    22:00 +16°C° 0 mm 7 m/S 753 mmHg 77%
    23:00 +16°C° 0 mm 7 m/S 753 mmHg 77%

    26 November, Montag

    Zeit Temperatur Niederschläge Wind Luftdruck Luftfeuchtigkeit
    00:00 +15°C° 0 mm 7 m/S 753 mmHg 78%
    01:00 +15°C° 0 mm 7 m/S 752 mmHg 78%
    02:00 +15°C° 0 mm 7 m/S 752 mmHg 78%
    03:00 +15°C° 0 mm 6 m/S 752 mmHg 77%
    04:00 +15°C° 0 mm 6 m/S 752 mmHg 77%
    05:00 +15°C° 0 mm 6 m/S 752 mmHg 76%
    06:00 +15°C° 0 mm 6 m/S 752 mmHg 76%
    07:00 +16°C° 0 mm 6 m/S 753 mmHg 70%
    08:00 +17°C° 0 mm 6 m/S 753 mmHg 64%
    09:00 +19°C° 0 mm 6 m/S 753 mmHg 58%
    10:00 +20°C° 0 mm 6 m/S 753 mmHg 55%
    11:00 +21°C° 0 mm 6 m/S 753 mmHg 52%
    12:00 +22°C° 0 mm 6 m/S 753 mmHg 49%
    13:00 +22°C° 0 mm 6 m/S 753 mmHg 50%
    14:00 +22°C° 0 mm 7 m/S 753 mmHg 51%
    15:00 +22°C° 0 mm 7 m/S 752 mmHg 51%
    16:00 +21°C° 0.1 mm 7 m/S 753 mmHg 59%
    17:00 +20°C° 0.1 mm 6 m/S 753 mmHg 67%
    18:00 +17°C° 0.1 mm 6 m/S 753 mmHg 75%
    19:00 +17°C° 0.2 mm 6 m/S 754 mmHg 77%
    20:00 +17°C° 0.2 mm 5 m/S 754 mmHg 79%
    21:00 +17°C° 0.2 mm 5 m/S 755 mmHg 81%
    22:00 +18°C° 0 mm 4 m/S 755 mmHg 81%
    23:00 +18°C° 0 mm 4 m/S 755 mmHg 81%
    Mehr zeigen